Regional Weather Roundup
Issued by NWS

Home | Current Version | Previous Version | Text Only | Print | Product List | Glossary Off
Versions: 1 2 3 4 5 6 7 8 9 10 11 12 13 14 15 16 17 18 19 20 21 22 23 24 25 26 27 28 29 30 31 32 33 34 35 36 37

000
ASUS45 KBOU 220807
RWRCO

WEATHER ROUNDUP FOR COLORADO
NATIONAL WEATHER SERVICE DENVER/BOULDER CO
200 AM MDT WED OCT 22 2014

NOTE: "FAIR" INDICATES FEW OR NO CLOUDS BELOW 12000 FEET WITH NO
SIGNIFICANT WEATHER AND/OR OBSTRUCTIONS TO VISIBILITY.

COZ001>005-013-030-031-220900-
...NORTHWEST COLORADO...

CITY           SKY/WX    TMP DP  RH WIND       PRES   REMARKS
CRAIG          CLOUDY    44  38  79 SE13      30.12S
HAYDEN         CLOUDY    41  37  87 E10       30.14F
MEEKER         MOCLDY    42  38  85 MISG      30.13F
MOUNT WERNER   NOT AVBL
STEAMBOAT SPGS CLOUDY    40  38  93 E7        30.17F
WALDEN         MOCLDY    36  34  93 S7        30.16S
$$

COZ006>008-011-220900-
...WEST CENTRAL VALLEYS...

CITY           SKY/WX    TMP DP  RH WIND       PRES   REMARKS
GRAND JUNCTION MOCLDY    50  44  80 S7        30.04S
MONTROSE       MOCLDY    47  41  80 N5        30.11R
EAGLE          CLOUDY    46  43  87 SE7       30.17F
RIFLE          LGT RAIN  47  44  90 S10       30.15R
DELTA          CLOUDY    54  48  80 NE9       30.07S
NUCLA          MOCLDY    46  37  71 S3        30.13R
$$

COZ017>023-064>068-220900-
...SOUTHWEST COLORADO...

CITY           SKY/WX    TMP DP  RH WIND       PRES   REMARKS
DURANGO        CLOUDY    45  41  86 N7        30.16R
CORTEZ         PTCLDY    45  40  82 CALM      30.11R
PAGOSA SPRINGS CLOUDY    44  43  99 CALM      30.21S
TELLURIDE      MOCLDY    42  34  74 CALM      30.26S
WOLF CREEK PAS HVY SNOW  32  32 100 SW17G28     N/A  VSB<1/4 WCI  21
$$

COZ009-010-012-014-032>034-037-058>063-220900-
...CENTRAL COLORADO...

CITY           SKY/WX    TMP DP  RH WIND       PRES   REMARKS
ASPEN          CLOUDY    40  37  89 NW5       30.18R
BUENA VISTA    PTCLDY    40  36  85 CALM      30.16S
COPPER MTN     PTCLDY    37  28  70 SW17G24   30.29F
BERTHOUD PASS  FOG       27  23  86 W25       30.30F VSB 3/4 WCI  11
COTTONWOOD PAS PTCLDY    43  36  75 CALM      30.22F
GUNNISON       CLEAR     37  30  75 NE3       30.20F
KREMMLING      HVY RAIN  43  34  70 NW6         N/A
LEADVILLE      MOCLDY    29  28  96 E3        30.21F
MONARCH PASS   FOG       32  32 100 MISG      30.41F VSB<1/4
SALIDA         PTCLDY    44  41  89 W5        30.22S
SUNLIGHT       FOG       34  34 100 NW6       30.29S VSB<1/4 WCI  29
WILKERSON PASS NOT AVBL
$$

COZ069>075-220900-
...SAN LUIS VALLEY/SANGRE DE CRISTO MOUNTAINS...

CITY           SKY/WX    TMP DP  RH WIND       PRES   REMARKS
ALAMOSA        PTCLDY    40  35  83 E3        30.16R
LA VETA PASS   MOCLDY    39  36  87 S10G24    30.25S
SAGUACHE       PTCLDY    41  36  81 NW10      30.18R
$$

COZ035-036-038>040-220900-
...NORTHERN COLORADO FRONT RANGE...

CITY           SKY/WX    TMP DP  RH WIND       PRES   REMARKS
DENVER INTL AP CLOUDY    58  42  55 E3        29.98F
DMNS CITY PARK   N/A     53  45  76 N5        29.99R
AURORA         MOCLDY    53  43  67 SE8       30.00F
FRONT RANGE AP LGT RAIN  55  45  67 S6        30.00R
ERIE MUNI ARPT MOCLDY    51  47  86 CALM      30.00R
BOULDER MUN AP MOCLDY    54  41  62 NW3       30.00R
CENTENNIAL     CLOUDY    55  41  59 CALM      30.00S
BROOMFIELD     MOCLDY    54  41  62 NW7       30.03R
FORT COLLINS   MOCLDY    55  39  54 N10       30.00S
LONGMONT       MOCLDY    52  45  76 CALM      30.01R
$$

COZ041-046-047-076>085-087-088-220900-
...PIKES PEAK/PALMER DIVIDE AND SOUTHERN FOOTHILLS...

CITY           SKY/WX    TMP DP  RH WIND       PRES   REMARKS
COLO. SPRINGS  CLOUDY    58  38  47 NW7       30.01S
A. F. ACADEMY  MOCLDY    59  31  34 VRB7      30.02S
ELLICOTT       CLOUDY    57  38  48 NE10      30.00S
FALCON         CLOUDY    55  35  47 NW7       30.04F
FORT CARSON    CLOUDY    54  40  59 N5        29.98S
LIMON          CLOUDY    46  42  86 N6        30.00R
MONUMENT HILL  CLOUDY    50  37  62 CALM      30.05S
TRINIDAD       MOCLDY    56  44  64 W15       30.02S
$$

COZ042>045-048>051-090-091-220900-
...NORTHEAST COLORADO...

CITY           SKY/WX    TMP DP  RH WIND       PRES   REMARKS
GREELEY ARPT   CLOUDY    54  43  66 N9        29.99S
AKRON          LGT RAIN  57  43  59 N17       29.94R
BURLINGTON     MOCLDY    57  46  66 S17       29.94S
WRAY           MOCLDY    61  47  60 MISG      29.90S
STERLING       CLOUDY    61  48  63 N7        29.93R
HOLYOKE        MOCLDY    54  45  71 NW6       29.92R
FORT MORGAN    CLOUDY    59  43  54 NW18G24   29.95R
$$

COZ086-089-092>099-220900-
...SOUTHEAST COLORADO...

CITY           SKY/WX    TMP DP  RH WIND       PRES   REMARKS
PUEBLO         MOCLDY    52  41  66 CALM      29.94S
LA JUNTA       MOCLDY    60  48  64 S13       29.92F
LAMAR          PTCLDY    59  49  69 S14       29.91F
SPRINGFIELD      N/A     56  49  77 S18G25    30.00F
$$



USA.gov is the U.S. government's official web portal to all federal, state and local government web resources and services.